Location: Laterina
(43.5167°N, 11.7167°E)
Time: 15:57:19
(UTC+00:00)

MOS 1 - Pass Details

Date: 24 September 2020
Orbit: 878 x 891 km, 99.1° (Epoch: 25 October)

Event Time Altitude Azimuth Distance (km) Brightness Sun altitude
Exits shadow 19:13:15 29° 172° (S) 1,575 5.3 -23.3°
Maximum altitude 19:16:19 80° 255° (WSW) 910 4.3 -23.8°
Drops below altitude 10° 19:22:03 10° 343° (NNW) 2,569 7.2 -24.8°
Sets 19:24:28 0° 345° (NNW) 3,512 8.0 -25.2°
